TimeEDT,TemperatureF,Dew PointF,Humidity,Sea Level PressureIn,VisibilityMPH,Wind Direction,Wind SpeedMPH,Gust SpeedMPH,PrecipitationIn,Events,Conditions,WindDirDegrees,DateUTC
12:15 AM,52.5,38.8,60,29.73,10.0,WSW,9.2,-,N/A,,Clear,250,2013-05-16 04:15:00
12:35 AM,53.2,38.3,57,29.72,10.0,WSW,8.1,-,N/A,,Clear,250,2013-05-16 04:35:00
12:54 AM,53.2,38.8,58,29.73,10.0,West,5.8,-,N/A,,Clear,260,2013-05-16 04:54:00
1:15 AM,51.8,39.6,63,29.73,10.0,West,8.1,-,N/A,,Clear,270,2013-05-16 05:15:00
1:35 AM,49.5,39.9,70,29.75,10.0,NNW,4.6,-,N/A,,Clear,340,2013-05-16 05:35:00
1:54 AM,48.2,39.9,73,29.75,10.0,WSW,5.8,-,N/A,,Clear,250,2013-05-16 05:54:00
2:15 AM,47.8,40.1,75,29.75,10.0,WSW,6.9,-,N/A,,Clear,240,2013-05-16 06:15:00
2:35 AM,47.7,40.1,75,29.75,10.0,WSW,6.9,-,N/A,,Clear,250,2013-05-16 06:35:00
2:54 AM,47.3,39.7,75,29.75,10.0,West,6.9,-,N/A,,Clear,270,2013-05-16 06:54:00
3:15 AM,48.7,39.4,70,29.76,10.0,West,8.1,-,N/A,,Clear,260,2013-05-16 07:15:00
3:35 AM,47.3,39.4,74,29.76,10.0,West,8.1,-,N/A,,Clear,260,2013-05-16 07:35:00
3:54 AM,45.9,40.1,80,29.76,10.0,West,9.2,-,N/A,,Clear,270,2013-05-16 07:54:00
4:15 AM,46.6,39.6,77,29.77,10.0,West,8.1,-,N/A,,Clear,260,2013-05-16 08:15:00
4:35 AM,45.5,40.1,81,29.78,10.0,West,8.1,-,N/A,,Clear,270,2013-05-16 08:35:00
4:54 AM,45.5,39.9,81,29.79,10.0,West,6.9,-,N/A,,Clear,280,2013-05-16 08:54:00
5:15 AM,45.0,39.7,82,29.80,10.0,West,8.1,-,N/A,,Clear,270,2013-05-16 09:15:00
5:34 AM,45.5,39.0,78,29.80,10.0,West,6.9,-,N/A,,Clear,270,2013-05-16 09:34:00
5:54 AM,44.6,39.2,81,29.81,10.0,West,6.9,-,N/A,,Clear,270,2013-05-16 09:54:00
6:15 AM,46.6,37.6,71,29.82,10.0,WNW,4.6,-,N/A,,Clear,290,2013-05-16 10:15:00
6:34 AM,46.2,36.9,70,29.83,10.0,West,5.8,-,N/A,,Clear,280,2013-05-16 10:34:00
6:54 AM,47.1,36.5,67,29.84,10.0,WNW,5.8,-,N/A,,Clear,290,2013-05-16 10:54:00
7:15 AM,48.9,35.4,60,29.85,10.0,WNW,5.8,-,N/A,,Clear,300,2013-05-16 11:15:00
7:34 AM,49.6,36.0,59,29.86,10.0,WNW,5.8,-,N/A,,Clear,300,2013-05-16 11:34:00
7:55 AM,50.9,36.5,58,29.86,10.0,NW,6.9,-,N/A,,Clear,310,2013-05-16 11:55:00
8:15 AM,52.3,36.5,55,29.86,10.0,NW,8.1,16.1,N/A,,Clear,320,2013-05-16 12:15:00
8:34 AM,53.4,36.5,53,29.87,10.0,NW,10.4,16.1,N/A,,Clear,320,2013-05-16 12:34:00
8:55 AM,54.3,36.5,51,29.88,10.0,NW,10.4,17.3,N/A,,Clear,320,2013-05-16 12:55:00
9:15 AM,54.7,36.7,51,29.88,10.0,NW,10.4,20.7,N/A,,Clear,320,2013-05-16 13:15:00
9:34 AM,55.2,36.0,48,29.89,10.0,NNW,9.2,16.1,N/A,,Clear,330,2013-05-16 13:34:00
9:55 AM,56.3,36.0,46,29.89,10.0,NW,9.2,-,N/A,,Clear,320,2013-05-16 13:55:00
10:15 AM,55.9,36.7,48,29.90,10.0,NNW,6.9,-,N/A,,Clear,330,2013-05-16 14:15:00
10:34 AM,57.6,35.8,44,29.91,10.0,NNW,9.2,-,N/A,,Clear,340,2013-05-16 14:34:00
10:55 AM,57.7,35.4,43,29.91,10.0,NNW,8.1,-,N/A,,Clear,340,2013-05-16 14:55:00
11:15 AM,58.6,36.3,43,29.92,10.0,North,6.9,-,N/A,,Clear,350,2013-05-16 15:15:00
11:34 AM,58.1,37.0,45,29.92,10.0,North,8.1,-,N/A,,Clear,10,2013-05-16 15:34:00
11:55 AM,58.8,36.1,43,29.93,10.0,NNE,5.8,-,N/A,,Clear,20,2013-05-16 15:55:00
12:15 PM,59.0,36.7,43,29.93,10.0,NNW,4.6,-,N/A,,Clear,340,2013-05-16 16:15:00
12:34 PM,59.4,37.4,44,29.93,10.0,NE,6.9,-,N/A,,Clear,50,2013-05-16 16:34:00
12:55 PM,58.3,37.0,45,29.94,10.0,ESE,6.9,-,N/A,,Clear,120,2013-05-16 16:55:00
1:15 PM,57.2,39.0,51,29.94,10.0,South,4.6,-,N/A,,Clear,190,2013-05-16 17:15:00
1:34 PM,59.5,38.3,45,29.95,10.0,SSE,4.6,-,N/A,,Clear,150,2013-05-16 17:34:00
1:55 PM,56.8,39.6,52,29.96,10.0,West,6.9,-,N/A,,Clear,280,2013-05-16 17:55:00
2:15 PM,58.1,39.6,50,29.96,10.0,WSW,6.9,-,N/A,,Clear,240,2013-05-16 18:15:00
2:34 PM,58.1,39.4,50,29.97,10.0,WSW,6.9,-,N/A,,Clear,240,2013-05-16 18:34:00
3:15 PM,57.9,38.8,49,29.97,10.0,WSW,10.4,16.1,N/A,,Clear,250,2013-05-16 19:15:00
3:34 PM,57.9,39.6,50,29.97,10.0,SW,4.6,-,N/A,,Clear,230,2013-05-16 19:34:00
3:55 PM,58.3,39.6,50,29.97,10.0,WSW,9.2,-,N/A,,Clear,240,2013-05-16 19:55:00
4:15 PM,58.5,39.9,50,29.97,10.0,WSW,8.1,-,N/A,,Clear,240,2013-05-16 20:15:00
4:34 PM,59.7,38.7,46,29.97,10.0,WSW,4.6,-,N/A,,Clear,250,2013-05-16 20:34:00
4:55 PM,59.0,39.7,49,29.97,10.0,SW,3.5,-,N/A,,Clear,230,2013-05-16 20:55:00
5:14 PM,61.0,37.6,42,29.97,10.0,NNW,4.6,-,N/A,,Clear,340,2013-05-16 21:14:00
5:34 PM,60.3,37.0,42,29.98,10.0,NE,9.2,-,N/A,,Clear,40,2013-05-16 21:34:00
5:55 PM,60.1,37.2,43,29.98,10.0,NE,5.8,-,N/A,,Clear,40,2013-05-16 21:55:00
6:14 PM,60.3,37.6,43,29.99,10.0,NNE,6.9,-,N/A,,Clear,30,2013-05-16 22:14:00
6:34 PM,59.7,36.7,42,29.99,10.0,NE,8.1,-,N/A,,Clear,40,2013-05-16 22:34:00
6:55 PM,59.2,37.8,45,29.99,10.0,NNE,6.9,-,N/A,,Clear,30,2013-05-16 22:55:00
7:14 PM,58.1,36.9,45,29.99,10.0,North,5.8,-,N/A,,Clear,10,2013-05-16 23:14:00
7:34 PM,57.9,36.7,45,30.00,10.0,North,9.2,-,N/A,,Clear,360,2013-05-16 23:34:00
7:55 PM,57.0,37.2,48,30.01,10.0,North,6.9,-,N/A,,Clear,360,2013-05-16 23:55:00
8:14 PM,55.9,37.4,50,30.02,10.0,North,6.9,-,N/A,,Clear,360,2013-05-17 00:14:00
8:34 PM,54.0,37.9,55,30.02,10.0,NNE,5.8,-,N/A,,Clear,20,2013-05-17 00:34:00
8:55 PM,52.2,38.7,60,30.03,10.0,North,8.1,-,N/A,,Clear,10,2013-05-17 00:55:00
9:14 PM,51.3,38.5,62,30.05,10.0,North,6.9,-,N/A,,Clear,10,2013-05-17 01:14:00
9:35 PM,50.0,38.1,64,30.06,10.0,North,9.2,-,N/A,,Clear,10,2013-05-17 01:35:00
9:55 PM,49.1,37.6,64,30.06,10.0,North,6.9,-,N/A,,Clear,10,2013-05-17 01:55:00
10:14 PM,48.2,37.4,66,30.08,10.0,NNE,9.2,-,N/A,,Clear,20,2013-05-17 02:14:00
10:35 PM,47.3,37.4,68,30.08,10.0,NNE,6.9,-,N/A,,Clear,20,2013-05-17 02:35:00
10:55 PM,46.0,37.6,72,30.08,10.0,North,8.1,-,N/A,,Clear,10,2013-05-17 02:55:00
11:14 PM,46.2,36.5,69,30.08,10.0,North,9.2,-,N/A,,Clear,10,2013-05-17 03:14:00
11:35 PM,45.5,36.5,71,30.09,10.0,North,6.9,-,N/A,,Clear,10,2013-05-17 03:35:00
11:54 PM,44.4,36.9,75,30.09,10.0,NNE,10.4,-,N/A,,Clear,30,2013-05-17 03:54:00